Location: Newark
(53.3503°N, 9.6158°W)
Time: 12:24:44
(UTC+00:00)

Envisat - Pass Details

Date: 31 October 2019
Orbit: 764 x 766 km, 98.1° (Epoch: 17 November)

Event Time Altitude Azimuth Distance (km) Brightness Sun altitude
Rises 06:03:05 0° 28° (NNE) 3,245 6.6 -14.0°
Reaches altitude 10° 06:06:41 10° 54° (NE) 2,312 6.2 -13.5°
Maximum altitude 06:09:11 14° 84° (E) 2,066 6.5 -13.1°
Drops below altitude 10° 06:11:40 10° 114° (ESE) 2,303 6.8 -12.8°
Sets 06:15:13 0° 140° (SE) 3,222 7.0 -12.2°
